Temp
12 11 11 11 11 11 11 11 10 10 10 10 10 10 10 10 11 12 12 12 13 12
13 12 12 12 11 10 11 11 10 10 10 10 10 10 10 10 11 12 12 12 12 13
12 12 11 11 11 10 10 10 10 9 9 9 10 10 10 10 11 11 12 12 12 12
10 11 11 11 11 10 10 10 9 8 9 9 9 9 9 10 10 11 11 11 11 12
10 10 10 11 10 10 9 9 9 9 8 8 8 8 8 9 10 10 11 11 11 12
9 9 10 10 10 10 9 9 8 8 7 8 7 8 8 8 8 10 10 11 10 10
8 8 8 9 9 9 9 8 8 7 7 7 7 7 8 8 8 9 10 10 10 10
7 7 8 8 8 8 8 8 7 7 7 7 7 7 6 6 8 9 9 10 10 10
6 6 7 8 8 8 7 7 7 7 7 7 6 7 7 6 8 9 9 9 9 9
5 5 6 7 7 7 7 7 7 7 7 7 6 6 6 7 8 8 8 8 9 8
4 5 5 6 7 7 7 7 6 6 6 6 6 6 6 7 7 7 7 7 8 7
3 4 4 4 6 6 6 6 6 6 6 6 6 6 6 5 5 5 5 6 6 6
3 3 3 3 4 5 4 4 4 5 6 6 6 7 6 6 6 5 5 5 5 6
2 3 3 3 3 3 3 3 3 3 4 5 6 6 6 6 6 6 6 6 6 6
Height
749 747 747 747 747 748 748 749 749 749 749 750 751 751 752 753 754 755 755 757 760 762
744 742 741 740 740 741 742 742 743 743 743 744 744 744 744 745 746 747 748 750 753 755
739 737 735 734 733 734 735 736 736 737 737 738 738 737 738 737 739 740 741 743 746 748
735 732 730 728 727 728 729 729 730 730 731 732 732 731 731 731 732 732 734 736 738 742
730 727 724 721 721 722 722 722 723 724 725 726 726 725 724 724 724 725 727 730 732 734
726 722 718 716 714 716 716 716 717 718 720 720 720 719 717 717 717 716 718 722 724 727
723 719 715 712 709 709 709 710 711 713 715 715 715 713 710 709 709 710 710 714 717 721
721 716 712 708 706 705 705 706 707 710 711 711 709 706 703 700 699 700 703 706 710 713
720 714 710 706 703 702 702 703 705 708 708 706 704 699 693 690 690 691 695 700 704 709
719 713 707 704 702 701 701 703 706 706 706 704 701 695 686 684 684 687 691 696 699 705
718 712 707 703 701 701 702 704 704 705 705 703 700 694 688 685 684 686 689 694 697 702
720 714 707 703 701 701 702 702 702 703 704 704 703 700 694 690 688 691 694 697 699 703
720 714 709 705 703 702 703 703 702 704 705 705 704 705 702 698 695 696 699 702 705 708
720 715 711 708 707 705 705 705 705 706 707 706 706 707 705 705 703 703 706 709 713 715
Wind_Speed
17 19 18 19 20 21 22 24 22 21 21 22 23 26 27 30 31 30 30 32 33 29
17 18 21 22 22 23 23 22 22 24 23 25 25 25 27 29 30 28 28 30 33 32
18 19 21 20 22 23 24 20 22 20 23 24 24 26 29 28 28 27 27 27 30 31
20 22 20 22 24 23 22 21 20 21 19 19 21 25 28 28 28 28 28 27 29 33
21 22 25 20 21 22 23 23 25 20 17 18 20 26 28 28 29 30 28 27 26 32
20 20 21 21 21 23 23 22 23 19 16 17 16 15 22 28 30 27 30 28 26 29
19 17 18 17 18 20 21 21 21 16 17 17 19 19 22 23 30 31 27 29 29 30
22 19 16 13 13 15 16 17 14 11 9 12 14 18 22 24 30 32 28 29 31 30
20 17 14 10 9 7 12 12 9 10 10 11 14 23 30 23 25 29 28 27 29 32
18 18 14 10 5 8 11 10 10 8 5 10 12 21 18 13 21 24 26 25 27 24
21 19 14 9 5 10 9 10 10 8 4 3 9 15 2 10 17 19 20 23 27 26
20 16 11 6 5 7 5 4 6 11 3 3 5 13 16 20 21 20 16 17 21 26
20 10 6 5 8 10 10 9 10 8 3 3 2 5 11 23 24 24 24 24 24 27
14 6 6 9 12 15 16 19 21 21 18 13 8 1 10 10 19 23 23 22 21 22
Wind_Direction
255 244 242 246 249 248 250 259 258 258 250 242 243 240 241 241 245 242 236 226 218 212
267 253 243 249 252 249 246 248 255 256 249 253 250 246 239 240 242 240 240 234 226 217
280 271 256 252 247 249 253 248 252 247 252 257 257 253 247 244 244 243 239 234 229 224
288 282 268 259 254 249 249 254 244 249 253 260 261 260 254 246 243 242 244 237 228 224
294 287 278 262 250 250 254 259 251 251 255 261 266 262 256 252 245 239 237 234 226 223
300 292 289 276 254 263 261 259 253 243 251 266 272 276 263 250 248 242 229 229 224 227
303 303 298 284 272 266 258 254 235 239 254 263 275 282 280 264 244 241 231 227 227 223
317 310 297 294 284 268 257 242 222 234 244 299 270 302 299 269 247 229 224 220 226 216
321 318 307 294 284 255 225 210 213 226 268 286 292 305 304 264 243 213 208 211 219 217
330 329 322 309 263 214 194 196 212 242 282 296 304 320 302 258 208 202 206 202 202 196
340 333 331 317 248 204 197 216 230 222 272 310 1 10 90 185 182 178 186 192 194 192
332 323 328 342 118 145 150 171 237 218 216 54 23 26 73 98 110 116 129 157 162 158
320 327 350 44 90 106 101 93 108 126 136 135 171 70 76 89 93 92 94 106 120 135
314 344 40 88 93 104 95 89 80 79 72 83 94 83 108 108 106 105 99 97 102 117